Voltar ao catálogo

BREEZE-M DEB

LostHEO
NORAD 38644·DEBRIS·🇷🇺 Russia

Lançado Mar 14, 2008 de Baikonur Cosmodrome

Loading…

Próximas Passagens (próximas 24 horas)

TLE

ObsoletoSource: Space-Track

Época: Feb 23, 2015, 21:22 UTC

1 38644U 08011CT  15054.89036693  .00006627  00000-0  91808-2 0  9993
2 38644  49.3360 281.6706 6429062 113.1157 357.7154  3.31983178 45914

Acompanhe BREEZE-M DEB em tempo real com AllMySat

Download on the App Store